Regional Weather Roundup
Issued by NWS Goodland, KS

Home | Current Version | Previous Version | Text Only | Print | Product List | Glossary On
Versions: 1 2 3 4 5 6 7 8 9 10 11 12 13 14 15 16 17 18 19 20 21 22 23 24 25 26 27 28 29 30 31 32 33 34 35 36 37 38 39 40 41 42 43 44 45 46 47 48 49 50
308
ASUS43 KGLD 280308
RWRGLD

GOODLAND FORECAST AREA HOURLY WEATHER ROUNDUP
NATIONAL WEATHER SERVICE GOODLAND KS
900 PM MDT WED JUL 27 2016

...OFFICIAL OBSERVATIONS...

CITY           SKY/WX    TMP DP  RH WIND       PRES   REMARKS
GOODLAND KS    CLOUDY    74  65  73 SE5       30.10R
HILL CITY KS   CLEAR     77  68  73 NE8       30.05R
IMPERIAL NEB   CLOUDY    77  60  55 NE9       30.12R
MCCOOK NEB     PTCLDY    76  67  73 E7        30.07R
AKRON CO       CLOUDY    73  60  63 E13       30.15S
BURLINGTON CO  CLOUDY    76  61  59 NE5       30.15R
LIMON CO       CLOUDY    74  57  55 E15       30.19R
$$

...UNOFFICIAL OBSERVATIONS...

CITY           SKY/WX    TMP DP  RH WIND       PRES   REMARKS
COLBY KS       CLEAR     79  66  65 E7        30.10R
LENORA KS        N/A     78  32  18 MISG        N/A
NORTON KS      PTCLDY    75  63  64 NE7       30.05
SHARON SPRINGS   N/A     75  64  70 E5          N/A
TRIBUNE KS     CLEAR     73  68  83 SE6       30.11R
KIT CARSON CO    N/A     73  62  68 CALM        N/A
YUMA CO          N/A     76  63  63 E12         N/A
$$




USA.gov is the U.S. government's official web portal to all federal, state and local government web resources and services.